Location: Godzisko
(49.9648°N, 19.4576°E)
Time: 07:31:17
(UTC+00:00)

Cosmos 1459 Rocket - Pass Details

Date: 20 April 2021
Orbit: 938 x 999 km, 83.0° (Epoch: 06 May)

Event Time Altitude Azimuth Distance (km) Brightness Sun altitude
Rises 02:34:55 0° 351° (N) 3,734 7.4 -10.2°
Reaches altitude 10° 02:37:29 10° 353° (N) 2,781 6.7 -9.8°
Maximum altitude 02:43:53 75° 79° (E) 1,034 4.3 -8.9°
Drops below altitude 10° 02:50:12 10° 165° (SSE) 2,745 6.2 -8.0°
Sets 02:52:43 0° 167° (SSE) 3,682 6.9 -7.7°
